Torna al catalogo

THOR ABLESTAR DEB

AttivoLEO
NORAD 5746·DEBRIS·🇺🇸 United States

Lanciato Jun 29, 1961 da Cape Canaveral Space Force Station

Loading…

Prossimi Passaggi (prossime 24 ore)

TLE

In scadenzaSource: Space-Track

Epoca: Sep 11, 2026, 13:16 UTC

1 05746U 61015JV  26254.55294198  .00001119  00000-0  56717-3 0  9998
2 05746  66.3040 309.8582 0043096 327.0522  32.7882 14.19413256294585

Traccia THOR ABLESTAR DEB in tempo reale con AllMySat

Download on the App Store